SWA1103 KMCO-KPVD

Flight info

Callsign SWA1103
Flight time N/A
Altitude 35000
Route FATHE4 VIYAP Q87 JROSS JOHAR Q109 DFENC SAWED Q97 ZJAAY Q167 ORCHA JORDN JORDN2
Aircraft B738/M-SDE2E3FGHIRWXY/LB1

Departure

Time 2026-04-26 13:04
Airport Orlando International Airport (KMCO)

Arrival

Time N/A
Airport Rhode Island T. F. Green International Airport (KPVD)
Time Latitude Longitude Altitude Speed Heading
2026-04-26 12:45 28.43581 -81.30373 100 ft 0 kts 131°
2026-04-26 12:49 28.43584 -81.30375 100 ft 3 kts 130°
2026-04-26 12:50 28.43596 -81.30400 97 ft 4 kts 96°
2026-04-26 12:50 28.43591 -81.30427 98 ft 4 kts 50°
2026-04-26 12:50 28.43573 -81.30445 99 ft 2 kts 30°
2026-04-26 12:50 28.43572 -81.30446 100 ft 0 kts 30°
2026-04-26 12:53 28.43572 -81.30445 100 ft 0 kts 30°
2026-04-26 12:54 28.43579 -81.30440 99 ft 3 kts 32°
2026-04-26 12:54 28.43610 -81.30415 99 ft 8 kts 38°
2026-04-26 12:54 28.43660 -81.30352 100 ft 13 kts 51°
2026-04-26 12:54 28.43727 -81.30255 100 ft 18 kts 52°
2026-04-26 12:55 28.43812 -81.30131 100 ft 22 kts 55°
2026-04-26 12:55 28.43803 -81.29962 100 ft 23 kts 123°
2026-04-26 12:55 28.43654 -81.29888 101 ft 26 kts 175°
2026-04-26 12:55 28.43550 -81.29837 102 ft 13 kts 124°
2026-04-26 12:56 28.43459 -81.29804 103 ft 16 kts 180°
2026-04-26 12:56 28.43335 -81.29803 102 ft 19 kts 179°
2026-04-26 12:56 28.43192 -81.29802 102 ft 22 kts 179°
2026-04-26 12:56 28.43032 -81.29801 102 ft 24 kts 179°
2026-04-26 12:57 28.42856 -81.29798 102 ft 26 kts 179°
2026-04-26 12:57 28.42667 -81.29796 102 ft 28 kts 180°
2026-04-26 12:57 28.42473 -81.29794 101 ft 28 kts 179°
2026-04-26 12:58 28.42280 -81.29897 103 ft 15 kts 269°
2026-04-26 12:58 28.42279 -81.30031 103 ft 19 kts 270°
2026-04-26 12:58 28.42278 -81.30195 101 ft 23 kts 269°
2026-04-26 12:58 28.42273 -81.30397 99 ft 28 kts 266°
2026-04-26 12:59 28.42258 -81.30626 103 ft 31 kts 265°
2026-04-26 12:59 28.42239 -81.30881 101 ft 35 kts 265°
2026-04-26 12:59 28.42240 -81.31067 93 ft 27 kts 277°
2026-04-26 12:59 28.42268 -81.31287 94 ft 30 kts 272°
2026-04-26 13:00 28.42267 -81.31528 98 ft 32 kts 269°
2026-04-26 13:00 28.42265 -81.31784 104 ft 33 kts 269°
2026-04-26 13:00 28.42246 -81.31962 108 ft 17 kts 225°
2026-04-26 13:00 28.42114 -81.31984 105 ft 23 kts 179°
2026-04-26 13:01 28.41936 -81.31982 102 ft 28 kts 179°
2026-04-26 13:01 28.41726 -81.31980 100 ft 32 kts 179°
2026-04-26 13:01 28.41565 -81.31990 98 ft 14 kts 214°
2026-04-26 13:01 28.41544 -81.32074 100 ft 13 kts 270°
2026-04-26 13:02 28.41544 -81.32090 100 ft 0 kts 270°
2026-04-26 13:03 28.41543 -81.32121 101 ft 9 kts 270°
2026-04-26 13:03 28.41553 -81.32192 100 ft 6 kts 306°
2026-04-26 13:03 28.41585 -81.32197 101 ft 9 kts
2026-04-26 13:03 28.41619 -81.32197 101 ft 5 kts 359°
2026-04-26 13:04 28.41888 -81.32199 102 ft 79 kts 359°
2026-04-26 13:04 28.42699 -81.32208 105 ft 152 kts 359°
2026-04-26 13:04 28.43928 -81.32228 465 ft 187 kts 359°
2026-04-26 13:04 28.45259 -81.32246 1385 ft 191 kts 358°
2026-04-26 13:05 28.46596 -81.32255 2253 ft 203 kts 356°
2026-04-26 13:05 28.48078 -81.32269 2784 ft 217 kts 358°
2026-04-26 13:05 28.49605 -81.32284 3322 ft 226 kts 356°
2026-04-26 13:05 28.51275 -81.32310 3580 ft 249 kts 356°
2026-04-26 13:06 28.53018 -81.32326 4289 ft 252 kts 356°
2026-04-26 13:06 28.54770 -81.32340 5147 ft 254 kts 356°
2026-04-26 13:06 28.56602 -81.32399 5625 ft 272 kts 355°
2026-04-26 13:06 28.58512 -81.32482 6303 ft 279 kts 355°
2026-04-26 13:07 28.60474 -81.32567 7107 ft 281 kts 355°
2026-04-26 13:07 28.62433 -81.32652 7940 ft 282 kts 355°
2026-04-26 13:07 28.64398 -81.32736 8725 ft 284 kts 355°
2026-04-26 13:07 28.66411 -81.32821 9548 ft 286 kts 355°
2026-04-26 13:08 28.68371 -81.32902 10267 ft 290 kts 355°
2026-04-26 13:08 28.70459 -81.32992 10551 ft 311 kts 355°
2026-04-26 13:08 28.72731 -81.33090 10722 ft 333 kts 355°
2026-04-26 13:08 28.75123 -81.33191 10884 ft 355 kts 355°
2026-04-26 13:09 28.77657 -81.33296 11026 ft 374 kts 356°
2026-04-26 13:09 28.80314 -81.33405 11208 ft 390 kts 356°
2026-04-26 13:09 28.83056 -81.33515 11645 ft 396 kts 356°
2026-04-26 13:09 28.85819 -81.33625 12228 ft 398 kts 356°
2026-04-26 13:10 28.88594 -81.33735 12801 ft 400 kts 356°
2026-04-26 13:10 28.91388 -81.33846 13336 ft 404 kts 356°
2026-04-26 13:10 28.94203 -81.33960 13859 ft 407 kts 356°
2026-04-26 13:10 28.97056 -81.34076 14317 ft 409 kts 356°
2026-04-26 13:11 28.99896 -81.34191 14802 ft 411 kts 356°
2026-04-26 13:11 29.02775 -81.34309 15274 ft 413 kts 356°
2026-04-26 13:11 29.05687 -81.34428 15733 ft 415 kts 356°
2026-04-26 13:11 29.08579 -81.34546 16169 ft 418 kts 355°
2026-04-26 13:12 29.11490 -81.34665 16611 ft 419 kts 355°
2026-04-26 13:12 29.14411 -81.34785 17036 ft 422 kts 355°
2026-04-26 13:12 29.17354 -81.34905 17433 ft 424 kts 355°
2026-04-26 13:12 29.20304 -81.35026 17840 ft 426 kts 355°
2026-04-26 13:13 29.23275 -81.35148 18230 ft 428 kts 355°
2026-04-26 13:13 29.26256 -81.35270 18565 ft 430 kts 355°
2026-04-26 13:13 29.29247 -81.35393 18892 ft 432 kts 355°
2026-04-26 13:13 29.32257 -81.35517 19234 ft 433 kts 355°
2026-04-26 13:14 29.35273 -81.35640 19566 ft 435 kts 355°
2026-04-26 13:14 29.38302 -81.35765 19897 ft 437 kts 355°
2026-04-26 13:14 29.41349 -81.35891 20217 ft 439 kts 355°
2026-04-26 13:14 29.44407 -81.36016 20539 ft 440 kts 355°
2026-04-26 13:15 29.47500 -81.36144 20855 ft 442 kts 355°
2026-04-26 13:15 29.50556 -81.36270 21170 ft 444 kts 355°
2026-04-26 13:15 29.53651 -81.36398 21462 ft 446 kts 355°
2026-04-26 13:15 29.55742 -81.36484 21665 ft 447 kts 355°
2026-04-26 13:16 29.57478 -81.36556 21832 ft 448 kts 355°
2026-04-26 13:16 29.59872 -81.36655 22050 ft 450 kts 355°
2026-04-26 13:16 29.64067 -81.36828 22435 ft 452 kts 355°
2026-04-26 13:16 29.66151 -81.36914 22626 ft 453 kts 355°
2026-04-26 13:17 29.72477 -81.37176 23178 ft 457 kts 355°
2026-04-26 13:17 29.75658 -81.37308 23453 ft 458 kts 355°
2026-04-26 13:18 29.82049 -81.37573 23943 ft 460 kts 355°
2026-04-26 13:18 29.85250 -81.37705 24196 ft 461 kts 355°
2026-04-26 13:18 29.91672 -81.37972 24661 ft 463 kts 354°
2026-04-26 13:19 29.94898 -81.38106 24884 ft 464 kts 354°
2026-04-26 13:19 29.98127 -81.38241 25111 ft 465 kts 354°
2026-04-26 13:19 30.01363 -81.38375 25328 ft 466 kts 354°
2026-04-26 13:19 30.04602 -81.38510 25551 ft 467 kts 354°
2026-04-26 13:20 30.07859 -81.38646 25769 ft 467 kts 354°
2026-04-26 13:20 30.11103 -81.38781 26038 ft 467 kts 354°
2026-04-26 13:20 30.14382 -81.38917 26366 ft 465 kts 354°
2026-04-26 13:20 30.17607 -81.39051 26719 ft 462 kts 354°
2026-04-26 13:21 30.20816 -81.39185 27066 ft 461 kts 354°
2026-04-26 13:21 30.24018 -81.39318 27386 ft 459 kts 354°
2026-04-26 13:21 30.27206 -81.39452 27724 ft 458 kts 354°
2026-04-26 13:21 30.30373 -81.39585 28079 ft 456 kts 354°
2026-04-26 13:22 30.33540 -81.39717 28453 ft 454 kts 354°
2026-04-26 13:22 30.36697 -81.39850 28829 ft 452 kts 354°
2026-04-26 13:22 30.39831 -81.39981 29182 ft 451 kts 354°
2026-04-26 13:22 30.42968 -81.40113 29545 ft 450 kts 354°
2026-04-26 13:23 30.46130 -81.40246 29922 ft 448 kts 354°
2026-04-26 13:23 30.49238 -81.40377 30280 ft 446 kts 354°
2026-04-26 13:23 30.52324 -81.40506 30653 ft 443 kts 354°
2026-04-26 13:23 30.55392 -81.40635 31016 ft 440 kts 353°
2026-04-26 13:24 30.58430 -81.40763 31363 ft 437 kts 353°
2026-04-26 13:24 30.61470 -81.40891 31695 ft 435 kts 353°
2026-04-26 13:24 30.64484 -81.41018 32016 ft 433 kts 353°
2026-04-26 13:24 30.67490 -81.41145 32354 ft 430 kts 353°
2026-04-26 13:25 30.70479 -81.41271 32697 ft 428 kts 353°
2026-04-26 13:25 30.73447 -81.41397 33008 ft 426 kts 353°
2026-04-26 13:25 30.76351 -81.41520 33314 ft 425 kts 353°
2026-04-26 13:25 30.79342 -81.41647 33622 ft 423 kts 353°
2026-04-26 13:26 30.82283 -81.41771 33931 ft 421 kts 353°
2026-04-26 13:26 30.85224 -81.41896 34202 ft 419 kts 353°
2026-04-26 13:26 30.88116 -81.42019 34416 ft 418 kts 353°
2026-04-26 13:26 30.91026 -81.42143 34574 ft 418 kts 353°
2026-04-26 13:27 30.93931 -81.42267 34752 ft 418 kts 353°
2026-04-26 13:27 30.96862 -81.42391 34937 ft 417 kts 353°
2026-04-26 13:27 30.99778 -81.42516 34934 ft 418 kts 353°
2026-04-26 13:28 31.05589 -81.42763 34940 ft 418 kts 353°
2026-04-26 13:28 31.11395 -81.43010 34932 ft 417 kts 353°
2026-04-26 13:29 31.17197 -81.43258 34940 ft 417 kts 353°
2026-04-26 13:29 31.23008 -81.43289 34947 ft 422 kts
2026-04-26 13:30 31.28790 -81.41723 34949 ft 434 kts 15°
2026-04-26 13:30 31.34324 -81.38776 34956 ft 438 kts 19°
2026-04-26 13:31 31.39826 -81.35706 34955 ft 438 kts 18°
2026-04-26 13:31 31.45377 -81.32653 34951 ft 438 kts 18°
2026-04-26 13:32 31.50900 -81.29643 34946 ft 438 kts 18°
2026-04-26 13:32 31.56463 -81.26613 34938 ft 438 kts 18°
2026-04-26 13:33 31.61988 -81.23597 34931 ft 438 kts 18°
2026-04-26 13:33 31.67511 -81.20579 34925 ft 438 kts 18°
2026-04-26 13:34 31.73034 -81.17558 34919 ft 438 kts 18°
2026-04-26 13:34 31.78559 -81.14532 34912 ft 438 kts 18°
2026-04-26 13:35 31.84077 -81.11505 34909 ft 438 kts 18°
2026-04-26 13:35 31.89604 -81.08468 34909 ft 438 kts 18°
2026-04-26 13:36 31.95119 -81.05435 34909 ft 438 kts 18°
2026-04-26 13:36 32.00650 -81.02388 34913 ft 439 kts 18°
2026-04-26 13:37 32.06167 -80.99313 34914 ft 439 kts 18°
2026-04-26 13:37 32.11685 -80.96220 34912 ft 440 kts 18°
2026-04-26 13:38 32.17259 -80.93094 34940 ft 441 kts 18°
2026-04-26 13:38 32.22803 -80.89983 34945 ft 441 kts 18°
2026-04-26 13:39 32.28310 -80.86889 34948 ft 442 kts 18°
2026-04-26 13:39 32.33916 -80.83735 34947 ft 443 kts 18°
2026-04-26 13:40 32.39484 -80.80598 34949 ft 444 kts 18°
2026-04-26 13:40 32.45061 -80.77452 34951 ft 444 kts 18°
2026-04-26 13:41 32.50611 -80.74316 34945 ft 445 kts 18°
2026-04-26 13:41 32.56205 -80.71151 34942 ft 446 kts 19°
2026-04-26 13:42 32.61811 -80.67974 34944 ft 447 kts 19°
2026-04-26 13:42 32.67464 -80.64768 34941 ft 448 kts 19°
2026-04-26 13:43 32.72784 -80.60761 34952 ft 463 kts 35°
2026-04-26 13:43 32.77357 -80.55274 34959 ft 469 kts 40°
2026-04-26 13:44 32.81814 -80.49683 34960 ft 470 kts 40°
2026-04-26 13:44 32.86335 -80.44057 34956 ft 470 kts 40°
2026-04-26 13:45 32.90141 -80.39361 34944 ft 471 kts 40°
2026-04-26 13:45 32.94704 -80.33747 34945 ft 472 kts 40°
2026-04-26 13:46 32.99271 -80.28122 34943 ft 473 kts 40°
2026-04-26 13:46 33.03839 -80.22484 34946 ft 473 kts 40°
2026-04-26 13:47 33.08410 -80.16831 34946 ft 474 kts 40°
2026-04-26 13:47 33.12984 -80.11166 34963 ft 474 kts 40°
2026-04-26 13:48 33.17561 -80.05487 34966 ft 475 kts 40°
2026-04-26 13:48 33.22140 -79.99797 34962 ft 475 kts 40°
2026-04-26 13:49 33.26691 -79.94134 34971 ft 476 kts 40°
2026-04-26 13:49 33.31278 -79.88416 34957 ft 477 kts 40°
2026-04-26 13:50 33.35871 -79.82682 34949 ft 478 kts 40°
2026-04-26 13:50 33.40498 -79.76895 34948 ft 478 kts 41°
2026-04-26 13:51 33.45062 -79.71177 34958 ft 479 kts 41°
2026-04-26 13:51 33.49668 -79.65398 34957 ft 480 kts 41°
2026-04-26 13:52 33.54275 -79.59607 34963 ft 480 kts 41°
2026-04-26 13:52 33.58886 -79.53802 34963 ft 481 kts 42°
2026-04-26 13:53 33.63496 -79.47989 34976 ft 482 kts 42°
2026-04-26 13:53 33.68127 -79.42141 34970 ft 484 kts 42°
2026-04-26 13:54 33.72762 -79.36276 34971 ft 484 kts 43°
2026-04-26 13:54 33.77393 -79.30407 34982 ft 484 kts 43°
2026-04-26 13:55 33.83572 -79.22561 34980 ft 486 kts 43°
2026-04-26 13:56 33.91318 -79.12699 34982 ft 486 kts 44°
2026-04-26 13:56 33.95955 -79.06782 34974 ft 486 kts 44°
2026-04-26 13:57 34.00589 -79.00859 34970 ft 486 kts 44°
2026-04-26 13:57 34.05226 -78.94922 34960 ft 487 kts 44°
2026-04-26 13:58 34.09864 -78.88973 34984 ft 487 kts 44°
2026-04-26 13:58 34.14502 -78.83015 34983 ft 487 kts 45°
2026-04-26 13:59 34.19169 -78.77008 35015 ft 487 kts 45°
2026-04-26 13:59 34.23805 -78.71030 35009 ft 488 kts 45°
2026-04-26 14:00 34.33125 -78.59079 34998 ft 489 kts 41°
2026-04-26 14:01 34.38414 -78.53919 34990 ft 488 kts 35°
2026-04-26 14:01 34.43886 -78.48876 34995 ft 496 kts 35°
2026-04-26 14:02 34.49387 -78.43737 34963 ft 498 kts 36°
2026-04-26 14:02 34.54822 -78.38588 34975 ft 490 kts 36°
2026-04-26 14:03 34.60185 -78.33487 34983 ft 490 kts 36°
2026-04-26 14:03 34.65560 -78.28370 34977 ft 491 kts 37°
2026-04-26 14:04 34.70943 -78.23239 34991 ft 493 kts 37°
2026-04-26 14:04 34.76348 -78.18079 34991 ft 495 kts 37°
2026-04-26 14:05 34.81767 -78.12896 34992 ft 496 kts 37°
2026-04-26 14:05 34.87206 -78.07690 35006 ft 498 kts 37°
2026-04-26 14:06 34.92716 -78.02431 35003 ft 501 kts 37°
2026-04-26 14:06 34.98204 -77.97187 34998 ft 502 kts 37°
2026-04-26 14:07 35.03706 -77.91917 35002 ft 503 kts 37°
2026-04-26 14:07 35.09206 -77.86637 35002 ft 503 kts 37°
2026-04-26 14:08 35.14745 -77.81311 35000 ft 504 kts 37°
2026-04-26 14:08 35.20246 -77.76011 35007 ft 504 kts 37°
2026-04-26 14:09 35.25749 -77.70700 35001 ft 503 kts 37°
2026-04-26 14:09 35.31237 -77.65394 35008 ft 502 kts 37°
2026-04-26 14:10 35.36754 -77.60050 35007 ft 503 kts 37°
2026-04-26 14:10 35.42240 -77.54728 35012 ft 504 kts 37°
2026-04-26 14:11 35.50460 -77.46734 35011 ft 504 kts 37°
2026-04-26 14:11 35.55978 -77.41356 35018 ft 503 kts 37°
2026-04-26 14:12 35.61452 -77.36011 35017 ft 502 kts 37°
2026-04-26 14:12 35.66913 -77.30669 35022 ft 502 kts 37°
2026-04-26 14:13 35.75105 -77.22637 35046 ft 502 kts 37°
2026-04-26 14:14 35.80572 -77.17265 35060 ft 504 kts 37°
2026-04-26 14:14 35.86058 -77.11864 35063 ft 506 kts 37°
2026-04-26 14:15 35.91587 -77.06428 35040 ft 508 kts 36°
2026-04-26 14:15 35.97529 -77.01788 35044 ft 505 kts 28°
2026-04-26 14:16 36.03620 -76.97453 35042 ft 504 kts 27°
2026-04-26 14:16 36.09691 -76.93105 35052 ft 504 kts 28°
2026-04-26 14:17 36.14754 -76.89426 35057 ft 503 kts 28°
2026-04-26 14:17 36.20822 -76.84981 35054 ft 503 kts 28°
2026-04-26 14:18 36.26833 -76.80566 35054 ft 502 kts 28°
2026-04-26 14:18 36.32806 -76.76174 35055 ft 502 kts 28°
2026-04-26 14:19 36.38886 -76.71697 35060 ft 501 kts 28°
2026-04-26 14:19 36.44892 -76.67267 35065 ft 502 kts 28°
2026-04-26 14:20 36.50890 -76.62835 35077 ft 501 kts 28°
2026-04-26 14:20 36.56876 -76.58404 35081 ft 501 kts 28°
2026-04-26 14:21 36.62865 -76.53962 35087 ft 501 kts 28°
2026-04-26 14:21 36.68894 -76.49483 35084 ft 501 kts 28°
2026-04-26 14:22 36.74879 -76.45028 35071 ft 501 kts 28°
2026-04-26 14:22 36.80870 -76.40560 35075 ft 501 kts 28°
2026-04-26 14:23 36.86854 -76.36089 35075 ft 501 kts 28°
2026-04-26 14:23 36.92839 -76.31609 35073 ft 501 kts 28°
2026-04-26 14:24 36.98820 -76.27124 35076 ft 501 kts 28°
2026-04-26 14:24 37.04803 -76.22629 35075 ft 501 kts 28°
2026-04-26 14:25 37.10784 -76.18127 35074 ft 502 kts 28°
2026-04-26 14:25 37.16764 -76.13618 35077 ft 502 kts 28°
2026-04-26 14:26 37.22739 -76.09104 35081 ft 502 kts 28°
2026-04-26 14:26 37.28715 -76.04580 35078 ft 502 kts 28°
2026-04-26 14:27 37.34687 -76.00050 35078 ft 501 kts 28°
2026-04-26 14:27 37.40662 -75.95510 35085 ft 502 kts 28°
2026-04-26 14:28 37.46633 -75.90964 35085 ft 502 kts 28°
2026-04-26 14:28 37.52600 -75.86414 35089 ft 502 kts 28°
2026-04-26 14:29 37.58586 -75.81888 35084 ft 501 kts 28°
2026-04-26 14:29 37.64584 -75.77398 35083 ft 501 kts 28°
2026-04-26 14:30 37.70622 -75.72861 35089 ft 501 kts 28°
2026-04-26 14:30 37.76612 -75.68340 35086 ft 501 kts 28°
2026-04-26 14:31 37.82606 -75.63809 35092 ft 501 kts 28°
2026-04-26 14:31 37.88521 -75.59021 35094 ft 503 kts 32°
2026-04-26 14:32 37.94262 -75.53943 35095 ft 503 kts 32°
2026-04-26 14:32 38.00012 -75.48893 35097 ft 503 kts 31°
2026-04-26 14:33 38.05794 -75.43870 35101 ft 503 kts 32°
2026-04-26 14:33 38.11458 -75.38639 35089 ft 504 kts 34°
2026-04-26 14:34 38.17058 -75.33272 35106 ft 504 kts 34°
2026-04-26 14:34 38.22663 -75.27929 35095 ft 504 kts 34°
2026-04-26 14:35 38.28291 -75.22597 35108 ft 504 kts 34°
2026-04-26 14:35 38.33916 -75.17266 35104 ft 504 kts 34°
2026-04-26 14:36 38.39535 -75.11926 35106 ft 504 kts 34°
2026-04-26 14:36 38.45119 -75.06607 35107 ft 504 kts 34°
2026-04-26 14:37 38.50571 -75.00942 35098 ft 506 kts 39°
2026-04-26 14:37 38.55855 -74.94996 35104 ft 506 kts 37°
2026-04-26 14:38 38.61332 -74.89358 35101 ft 505 kts 36°
2026-04-26 14:38 38.66824 -74.83740 35104 ft 506 kts 36°
2026-04-26 14:39 38.72279 -74.78056 35109 ft 506 kts 36°
2026-04-26 14:39 38.77678 -74.72248 35111 ft 507 kts 39°
2026-04-26 14:40 38.82875 -74.66123 35113 ft 508 kts 40°
2026-04-26 14:40 38.88077 -74.59955 35114 ft 508 kts 40°
2026-04-26 14:41 38.93302 -74.53835 35109 ft 509 kts 39°
2026-04-26 14:41 38.98623 -74.47853 35108 ft 508 kts 37°
2026-04-26 14:42 39.04063 -74.42071 35106 ft 508 kts 36°
2026-04-26 14:42 39.09505 -74.36259 35111 ft 508 kts 37°
2026-04-26 14:43 39.14916 -74.30404 35109 ft 509 kts 37°
2026-04-26 14:43 39.20326 -74.24516 35119 ft 509 kts 37°
2026-04-26 14:44 39.25729 -74.18625 35115 ft 509 kts 37°
2026-04-26 14:44 39.31135 -74.12724 35121 ft 509 kts 37°
2026-04-26 14:45 39.36540 -74.06810 35124 ft 509 kts 37°
2026-04-26 14:45 39.41943 -74.00889 35127 ft 509 kts 37°
2026-04-26 14:46 39.47342 -73.94974 35125 ft 509 kts 37°
2026-04-26 14:46 39.52739 -73.89052 35126 ft 508 kts 37°
2026-04-26 14:47 39.58133 -73.83120 35128 ft 508 kts 37°